Eagle, AK

1:58 AM AKST on February 09, 2016 (GMT -0900)
Eagle

Weather History for PAEG - August, 2013

Change the Weather History Date:

Monday, August 19, 2013

  Actual Average (PABN) Record (PABN)
Temperature  
Mean Temperature 60 °F -  
Max Temperature 69 °F 54 °F 69 °F (2004)
Min Temperature 51 °F 44 °F 39 °F (1998)
Degree Days  
Heating Degree Days 6    
Growing Degree Days 10 (Base 50)    
Moisture  
Dew Point 51 °F    
Average Humidity 81    
Maximum Humidity 100    
Minimum Humidity 45    
Precipitation  
Precipitation 0.06 in - - ()
Sea Level Pressure  
Sea Level Pressure 29.57 in    
Wind  
Wind Speed 0 mph (NNE)    
Max Wind Speed 5 mph    
Max Gust Speed -    
Visibility 10 miles    
Events Rain    
Averages and records for this station are not official NWS values.
T = Trace of Precipitation, MM = Missing Value Source: NWS Daily Summary

Daily Weather History Graph

Daily Weather History Graph

Search for Another Location

Airport or City:

Trip Planner

Search our weather history database for the weather conditions in past years. The results will help you decide how hot, cold, wet, or windy it might be!

Date:

Astronomy

Aug. 19, 2013 Rise Set
Actual Time 5:25 AM AKDT 9:28 PM AKDT
Civil Twilight 4:21 AM AKDT 10:31 PM AKDT
Nautical Twilight 2:18 AM AKDT 12:25 AM AKDT
Astronomical Twilight Sun does not rise Sun does not rise
Moon 8:18 PM AKDT (8/19) 3:43 AM AKDT (8/19)
Length of Visible Light 18h 09m
Length of Day
16h 02m
Waxing Gibbous, 98% of the Moon is Illuminated
Aug 19
Waxing Gibbous
Aug 20
Full
Aug 28
Last Quarter
Sep 5
New
Sep 12
First Quarter

Hourly Weather History & Observations

Time (AKDT) Temp. Dew Point Humidity Pressure Visibility Wind Dir Wind Speed Gust Speed Precip Events Conditions
12:53 AM 54.0 °F 50.0 °F 86% 29.53 in 10.0 mi Calm Calm - N/A   Overcast
1:14 AM 53.6 °F 50.0 °F 88% 29.53 in 10.0 mi Calm Calm - 0.00 in Rain Light Rain
1:53 AM 53.1 °F 51.1 °F 93% 29.54 in 10.0 mi Calm Calm - 0.00 in   Overcast
2:27 AM 53.6 °F 51.8 °F 94% 29.54 in 8.0 mi Calm Calm - 0.01 in Rain Light Rain
2:53 AM 53.1 °F 51.1 °F 93% 29.54 in 10.0 mi Calm Calm - 0.02 in Rain Light Rain
3:53 AM 53.1 °F 51.1 °F 93% 29.55 in 10.0 mi Calm Calm - 0.02 in   Overcast
4:53 AM 53.1 °F 51.1 °F 93% 29.55 in 10.0 mi Calm Calm - 0.01 in   Overcast
5:45 AM 51.8 °F 51.8 °F 100% 29.55 in 10.0 mi Calm Calm - N/A   Overcast
5:53 AM 52.0 °F 51.1 °F 97% 29.56 in 10.0 mi Calm Calm - N/A   Overcast
6:24 AM 51.8 °F 50.0 °F 94% 29.56 in 9.0 mi Calm Calm - N/A   Overcast
6:53 AM 51.1 °F 48.9 °F 92% 29.57 in 10.0 mi Calm Calm - N/A   Overcast
7:23 AM 51.8 °F 50.0 °F 94% 29.57 in 10.0 mi Calm Calm - N/A   Overcast
7:53 AM 54.0 °F 52.0 °F 93% 29.58 in 10.0 mi Calm Calm - N/A   Overcast
8:53 AM 57.9 °F 53.1 °F 84% 29.58 in 10.0 mi Calm Calm - N/A   Scattered Clouds
9:53 AM 60.1 °F 53.1 °F 78% 29.58 in 10.0 mi Variable 3.5 mph - N/A   Overcast
10:53 AM 61.0 °F 52.0 °F 72% 29.59 in 10.0 mi Calm Calm - N/A   Mostly Cloudy
11:53 AM 64.9 °F 51.1 °F 61% 29.58 in 10.0 mi NE 3.5 mph - N/A   Partly Cloudy
12:53 PM 66.0 °F 48.9 °F 54% 29.58 in 10.0 mi Calm Calm - N/A   Partly Cloudy
1:53 PM 66.9 °F 46.9 °F 49% 29.57 in 10.0 mi Calm Calm - N/A   Partly Cloudy
2:53 PM 68.0 °F 46.0 °F 45% 29.57 in 10.0 mi Calm Calm - N/A   Mostly Cloudy
3:53 PM 59.0 °F 50.0 °F 72% 29.61 in 10.0 mi Calm Calm - 0.01 in   Overcast
4:53 PM 63.0 °F 52.0 °F 67% 29.60 in 10.0 mi ENE 3.5 mph - 0.00 in   Overcast
5:53 PM 62.1 °F 51.1 °F 67% 29.60 in 10.0 mi Calm Calm - N/A   Mostly Cloudy
6:53 PM 64.0 °F 50.0 °F 60% 29.60 in 10.0 mi Calm Calm - N/A   Mostly Cloudy
7:53 PM 60.1 °F 53.1 °F 78% 29.60 in 10.0 mi Calm Calm - N/A   Overcast
8:53 PM 57.9 °F 53.1 °F 84% 29.60 in 10.0 mi Calm Calm - N/A   Overcast
9:53 PM 55.0 °F 51.1 °F 86% 29.60 in 10.0 mi Calm Calm - N/A   Overcast
10:53 PM 53.1 °F 50.0 °F 89% 29.60 in 10.0 mi Calm Calm - N/A   Overcast
11:53 PM 55.9 °F 50.0 °F 80% 29.62 in 10.0 mi West 4.6 mph - N/A   Overcast